Find OneWeb SL0689

NORAD ID: 61597 Int'l Des: 2024-188 Owner: ONEWEBE Country: UK Constellation: oneweb operational
LEOCIRCULARPOLARONEWEB_TYPE

現在のビュー

3D地球を読み込み中...

About OneWeb SL0689

OneWeb SL0689 (NORAD 61597) is a oneweb constellation satellite launched Oct 20, 2024 by ONEWEBE of UK. It operates in LEO, CIRCULAR, POLAR, ONEWEB_TYPE orbit with a mass of 148.00 kg.

OneWeb SL0689について

説明を読み込み中...

次回通過

Passes for default location (London). Set your location on the main map for personalized predictions.

高度履歴

Loading altitude history...

軌道要素

1 61597U 24188D 26169.10633307 .00000447 00000-0 12246-2 0 9990
2 61597 87.8900 20.8683 0002095 91.4459 268.6909 13.11419940 84574
Epoch: Jun 18, 2026 • Age: 11 hours

現在のステータス

高度 1227.8 km
速度 7.25 km/s
衛星直下点 66.85°N, 89.3°W
打ち上げ日 Oct 20, 2024
運用期間 1.6 years
タイプ internet

技術仕様

分類 Payload
質量 148.00 kg
乾燥質量 140.00 kg
総質量 148.00 kg
長さ 1.30 m
直径 1.00 m
スパン 5.00 m
形状 Trapezoid+2 pan
製造者 ONEWUS
バスタイプ ARROW
フェーズステータス In Orbit
所有者/国 ONEWEBE/UK

Most Searched